This demonstration page uses our WeatherBlox Daily Observations layout. Learn more.

Left ArrowRight Arrow

36.19886, -115.1175

Hourly Observations for December 3, 2020

Temp ( °F °C ) Dew Point ( °F °C ) Humidity (%) Winds ( mph kmh ) Pressure ( in mb ) Visibility ( mi km ) Precip ( " mm )
12:53 am 00:53 Clear 40 4.4 12 -11.1 32 32 WNW 6 9 30.45 1031 10 16 N/A
1:53 am 01:53 Clear 41 5 9 -12.8 27 27 NW 8 13 30.45 1031 10 16 N/A
2:53 am 02:53 Clear 44 6.7 9 -12.8 24 24 NNW 14 22 30.44 1031 10 16 N/A
3:53 am 03:53 Clear 43 6.1 9 -12.8 25 25 N 10 17 30.44 1031 10 16 N/A
4:53 am 04:53 Clear 43 6.1 8 -13.3 24 24 NNW 13 20 30.45 1031 10 16 N/A
5:53 am 05:53 Clear 40 4.4 8 -13.3 27 27 N N/A 30.47 1032 10 16 N/A
6:53 am 06:53 Sunny 41 5 7 -13.9 24 24 WNW 13 20 30.48 1032 10 16 N/A
7:53 am 07:53 Sunny 43 6.1 7 -13.9 22 22 NNW 10 17 30.48 1032 10 16 N/A
8:53 am 08:53 Sunny 49 9.4 7 -13.9 18 18 N 12 19 30.48 1032 10 16 N/A
9:53 am 09:53 Sunny 51 10.6 6 -14.4 16 16 N 15 24 30.47 1032 10 16 N/A
10:53 am 10:53 Sunny 53 11.7 6 -14.4 15 15 E 6 9 30.44 1031 10 16 N/A
11:53 am 11:53 Sunny 54 12.2 6 -14.4 14 14 ENE 6 9 30.41 1030 10 16 N/A
12:53 pm 12:53 Sunny 55 12.8 6 -14.4 14 14 VRB 6 9 30.38 1029 10 16 N/A
1:53 pm 13:53 Sunny 56 13.3 5 -15 13 13 N N/A 30.36 1028 10 16 N/A
2:53 pm 14:53 Sunny 57 13.9 4 -15.6 11 11 N N/A 30.34 1027 10 16 N/A
3:53 pm 15:53 Sunny 57 13.9 4 -15.6 11 11 N N/A 30.33 1027 10 16 N/A
4:53 pm 16:53 Clear 54 12.2 7 -13.9 15 15 SSW 3 6 30.33 1027 10 16 N/A
5:53 pm 17:53 Clear 50 10 9 -12.8 19 19 W 5 7 30.35 1028 10 16 N/A
6:53 pm 18:53 Clear 47 8.3 13 -10.6 25 25 WNW 8 13 30.35 1028 10 16 N/A
7:53 pm 19:53 Clear 45 7.2 11 -11.7 25 25 W 8 13 30.36 1028 10 16 N/A
8:53 pm 20:53 Clear 43 6.1 11 -11.7 27 27 W 8 13 30.36 1028 10 16 N/A
9:53 pm 21:53 Clear 43 6.1 3 -16.1 19 19 NW 8 13 30.37 1028 10 16 N/A
10:53 pm 22:53 Clear 46 7.8 -2 -18.9 13 13 NNW 8 13 30.37 1028 10 16 N/A
11:53 pm 23:53 Clear 39 3.9 5 -15 24 24 NW 5 7 30.38 1029 10 16 N/A

Powered by AerisWeather